Wausau, WI

5:27 AM CDT on March 28, 2017 (GMT -0500)
Wausau Downtown

Weather History for KAUW - April, 2014

Change the Weather History Date:

Friday, April 4, 2014

  Actual Average Record
Temperature  
Mean Temperature 29 °F 39 °F  
Max Temperature 32 °F 49 °F 78 °F (1921)
Min Temperature 25 °F 28 °F 4 °F (1995)
Degree Days  
Heating Degree Days 36 26  
Month to date heating degree days 133 108  
Since 1 July heating degree days 8412 7329  
Cooling Degree Days 0 0  
Month to date cooling degree days 0 0  
Year to date cooling degree days 0 0  
Moisture  
Dew Point 27 °F    
Average Humidity 89    
Maximum Humidity 100    
Minimum Humidity 78    
Precipitation  
Precipitation 0.43 in 0.07 in 0.96 in (1927)
Month to date precipitation 0.83 0.29  
Year to date precipitation 4.52 3.99  
Snow  
Snow 2.50 in 0.10 in 5.00 in (1977)
Month to date snowfall 2.7 0.7  
Since 1 July snowfall 78.6 56.0  
Snow Depth 5.00 in    
Sea Level Pressure  
Sea Level Pressure 29.63 in    
Wind  
Wind Speed 10 mph (North)    
Max Wind Speed 26 mph    
Max Gust Speed 39 mph    
Visibility 4 miles    
Events Fog , Rain , Snow    
T = Trace of Precipitation, MM = Missing Value Source: NWS Daily Summary

Daily Weather History Graph

Daily Weather History Graph

Search for Another Location

Airport or City:

Trip Planner

Search our weather history database for the weather conditions in past years. The results will help you decide how hot, cold, wet, or windy it might be!

Date:

Astronomy

Apr. 04, 2014 Rise Set
Actual Time 6:33 AM CDT 7:30 PM CDT
Civil Twilight 6:03 AM CDT 7:59 PM CDT
Nautical Twilight 5:28 AM CDT 8:35 PM CDT
Astronomical Twilight 4:51 AM CDT 9:13 PM CDT
Moon 9:41 AM CDT (4/4) No Moon Set
Length of Visible Light 13h 56m
Length of Day
12h 56m
Waxing Crescent, 25% of the Moon is Illuminated
Apr 4
Waxing Crescent
Apr 7
First Quarter
Apr 15
Full
Apr 22
Last Quarter
Apr 29
New

Hourly Weather History & Observations

Time (CDT) Temp. Windchill Dew Point Humidity Pressure Visibility Wind Dir Wind Speed Gust Speed Precip Events Conditions
12:46 AM 30.0 °F 19.5 °F 28.0 °F 92% 29.65 in 10.0 mi East 13.8 mph 21.9 mph 0.03 in   Overcast
12:54 AM 30.0 °F 19.1 °F 27.0 °F 88% 29.70 in 10.0 mi East 15.0 mph 28.8 mph 0.03 in   Overcast
1:04 AM 30.9 °F 24.3 °F 28.0 °F 89% 29.65 in 7.0 mi ENE 6.9 mph - 0.01 in Rain Light Freezing Rain
1:11 AM 30.9 °F 22.8 °F 28.0 °F 89% 29.64 in 7.0 mi ENE 9.2 mph - 0.02 in Rain Light Freezing Rain
1:30 AM 30.9 °F 22.8 °F 28.0 °F 89% 29.63 in 7.0 mi East 9.2 mph - 0.03 in Rain Light Freezing Rain
1:54 AM 30.9 °F 24.3 °F 28.9 °F 92% 29.71 in 8.0 mi Variable 6.9 mph - 0.05 in Rain Light Freezing Rain
2:07 AM 30.9 °F 26.2 °F 28.9 °F 92% 29.67 in 10.0 mi SE 4.6 mph - 0.00 in   Overcast
2:15 AM 30.9 °F - 28.9 °F 92% 29.67 in 10.0 mi Calm Calm - 0.00 in Rain Light Freezing Rain
2:54 AM 30.9 °F 26.2 °F 30.0 °F 96% 29.68 in 7.0 mi East 4.6 mph - 0.02 in Rain Light Freezing Rain
3:00 AM 30.9 °F 23.5 °F 28.9 °F 92% 29.61 in 9.0 mi ENE 8.1 mph - 0.00 in   Overcast
3:31 AM 30.9 °F 23.5 °F 28.9 °F 92% 29.59 in 2.5 mi East 8.1 mph - 0.00 in Rain Light Freezing Rain
3:49 AM 30.2 °F 21.3 °F 30.2 °F 100% 29.58 in 3.0 mi East 10.4 mph - 0.00 in   Overcast
3:54 AM 30.9 °F 22.2 °F 28.9 °F 92% 29.62 in 2.5 mi East 10.4 mph - 0.00 in Rain Light Freezing Rain
4:24 AM 30.9 °F 23.5 °F 28.9 °F 92% 29.55 in 4.0 mi ENE 8.1 mph - 0.01 in Rain Light Freezing Rain
4:44 AM 30.9 °F 23.5 °F 28.9 °F 92% 29.53 in 2.5 mi ENE 8.1 mph - 0.01 in Rain Light Freezing Rain
4:54 AM 30.9 °F 22.8 °F 28.9 °F 92% 29.58 in 3.0 mi ENE 9.2 mph - 0.01 in Rain Light Freezing Rain
5:03 AM 30.9 °F 24.3 °F 30.0 °F 96% 29.55 in 3.0 mi East 6.9 mph - 0.00 in   Overcast
5:15 AM 30.9 °F 22.8 °F 28.9 °F 92% 29.55 in 2.5 mi ENE 9.2 mph - 0.01 in Rain Light Freezing Rain
5:31 AM 30.9 °F 24.3 °F 28.9 °F 92% 29.54 in 2.0 mi ENE 6.9 mph - 0.04 in Rain Light Freezing Rain
5:41 AM 30.9 °F 22.8 °F 28.9 °F 92% 29.54 in 3.0 mi ENE 9.2 mph - 0.06 in Rain Light Freezing Rain
5:50 AM 30.2 °F 22.6 °F 28.4 °F 93% 29.53 in 4.0 mi ENE 8.1 mph - 0.06 in Rain Light Freezing Rain
5:54 AM 30.0 °F 22.4 °F 28.9 °F 96% 29.58 in 3.0 mi NE 8.1 mph - 0.07 in Rain Light Freezing Rain
6:00 AM 30.0 °F 25.2 °F 28.9 °F 96% 29.54 in 2.0 mi ENE 4.6 mph - 0.03 in   Overcast
6:25 AM 30.0 °F 25.2 °F 28.9 °F 96% 29.54 in 2.5 mi NNE 4.6 mph - 0.03 in Snow Light Snow
6:30 AM 30.9 °F - 28.9 °F 92% 29.56 in 3.0 mi Calm Calm - 0.03 in Snow Light Snow
6:42 AM 30.0 °F 24.1 °F 28.0 °F 92% 29.55 in 2.0 mi North 5.8 mph - 0.04 in Snow Light Snow
6:44 AM 30.0 °F 22.4 °F 28.0 °F 92% 29.54 in 1.8 mi North 8.1 mph - 0.04 in Snow Light Snow
6:52 AM 30.2 °F 24.3 °F 28.4 °F 93% 29.54 in 2.0 mi North 5.8 mph - 0.05 in Snow Light Snow
6:54 AM 30.0 °F 24.1 °F 28.9 °F 96% 29.60 in 1.8 mi North 5.8 mph - 0.05 in Snow Light Snow
7:18 AM 30.0 °F 24.1 °F 28.9 °F 96% 29.54 in 0.5 mi North 5.8 mph - 0.02 in Fog , Snow Snow
7:44 AM 30.0 °F 23.2 °F 28.9 °F 96% 29.51 in 0.8 mi NNE 6.9 mph - 0.04 in Snow Light Snow
7:54 AM 30.0 °F 23.2 °F 28.9 °F 96% 29.54 in 0.8 mi NNE 6.9 mph - 0.04 in Snow Light Snow
7:59 AM 30.0 °F 23.2 °F 28.9 °F 96% 29.48 in 1.0 mi NNE 6.9 mph - 0.00 in Snow Light Snow
8:20 AM 30.9 °F 27.5 °F 28.9 °F 92% 29.51 in 2.5 mi NE 3.5 mph - 0.00 in Snow Light Snow
8:29 AM 30.9 °F 24.3 °F 28.9 °F 92% 29.52 in 1.8 mi North 6.9 mph - 0.01 in Snow Light Snow
8:37 AM 30.9 °F 23.5 °F 28.9 °F 92% 29.51 in 3.0 mi North 8.1 mph - 0.01 in Snow Light Snow
8:54 AM 30.9 °F 26.2 °F 28.9 °F 92% 29.55 in 8.0 mi North 4.6 mph - 0.01 in   Overcast
9:23 AM 32.0 °F 26.4 °F 28.9 °F 88% 29.48 in 7.0 mi North 5.8 mph - N/A   Overcast
9:54 AM 32.0 °F 24.8 °F 28.9 °F 88% 29.55 in 8.0 mi NNW 8.1 mph - N/A   Overcast
10:54 AM 30.9 °F 22.2 °F 28.0 °F 89% 29.55 in 10.0 mi North 10.4 mph - N/A   Overcast
11:46 AM 30.9 °F 22.8 °F 28.9 °F 92% 29.52 in 1.8 mi NNW 9.2 mph - 0.00 in Snow Light Snow
11:54 AM 30.9 °F 22.8 °F 28.9 °F 92% 29.57 in 1.0 mi NNW 9.2 mph - 0.01 in Snow Light Snow
11:59 AM 30.9 °F 23.5 °F 28.9 °F 92% 29.52 in 0.8 mi NW 8.1 mph - 0.00 in Snow Light Snow
12:06 PM 30.9 °F 22.8 °F 28.9 °F 92% 29.52 in 1.0 mi NNW 9.2 mph - 0.00 in Snow Light Snow
12:13 PM 30.9 °F 23.5 °F 28.9 °F 92% 29.53 in 0.8 mi NW 8.1 mph - 0.01 in Snow Light Snow
12:33 PM 32.0 °F 23.0 °F 28.9 °F 88% 29.53 in 1.0 mi NNW 11.5 mph - 0.01 in Snow Light Snow
12:42 PM 30.9 °F 21.7 °F 28.9 °F 92% 29.53 in 1.2 mi NNW 11.5 mph - 0.01 in Snow Light Snow
12:54 PM 30.9 °F 22.2 °F 28.9 °F 92% 29.59 in 1.2 mi NNW 10.4 mph 20.7 mph 0.02 in Snow Light Snow
1:11 PM 32.0 °F 21.2 °F 28.0 °F 85% 29.53 in 3.0 mi NW 16.1 mph 21.9 mph 0.00 in Snow Light Snow
1:36 PM 32.0 °F 22.1 °F 28.0 °F 85% 29.54 in 7.0 mi NNW 13.8 mph 20.7 mph 0.00 in   Overcast
1:54 PM 32.0 °F 20.8 °F 28.0 °F 85% 29.60 in 4.0 mi NW 17.3 mph 23.0 mph 0.00 in Snow Light Snow
2:00 PM 30.9 °F 20.7 °F 28.0 °F 89% 29.56 in 2.5 mi NNW 13.8 mph 23.0 mph 0.00 in Snow Light Snow
2:07 PM 30.9 °F 19.8 °F 28.0 °F 89% 29.56 in 1.5 mi NNW 16.1 mph 25.3 mph 0.00 in Snow Light Snow
2:13 PM 30.9 °F 20.7 °F 28.0 °F 89% 29.57 in 0.8 mi NNW 13.8 mph 21.9 mph 0.00 in Snow Light Snow
2:23 PM 30.9 °F 20.7 °F 28.0 °F 89% 29.57 in 0.8 mi NNW 13.8 mph 23.0 mph 0.00 in Snow Light Snow
2:29 PM 30.9 °F 19.4 °F 28.0 °F 89% 29.58 in 1.2 mi NNW 17.3 mph 24.2 mph 0.00 in Snow Light Snow
2:54 PM 30.0 °F 19.5 °F 27.0 °F 88% 29.65 in 1.0 mi NNW 13.8 mph 26.5 mph 0.00 in Snow Light Snow
3:14 PM 30.9 °F 20.7 °F 28.0 °F 89% 29.60 in 0.5 mi NNW 13.8 mph 29.9 mph 0.00 in Fog , Snow Snow
3:21 PM 30.9 °F 20.7 °F 28.9 °F 92% 29.61 in 0.2 mi NNW 13.8 mph - 0.00 in Fog , Snow Heavy Snow
3:28 PM 30.0 °F 18.3 °F 28.0 °F 92% 29.61 in 0.2 mi NNW 17.3 mph 27.6 mph 0.01 in Fog , Snow Heavy Snow
3:54 PM 30.0 °F 19.1 °F 27.0 °F 88% 29.68 in 0.8 mi NNW 15.0 mph 27.6 mph 0.01 in Snow Light Snow
4:03 PM 30.9 °F 21.7 °F 28.0 °F 89% 29.63 in 1.8 mi NNW 11.5 mph 23.0 mph 0.00 in Snow Light Snow
4:10 PM 30.9 °F 19.8 °F 26.1 °F 82% 29.64 in 3.0 mi NNW 16.1 mph 27.6 mph 0.00 in Snow Light Snow
4:19 PM 30.9 °F 21.7 °F 27.0 °F 85% 29.65 in 1.8 mi NNW 11.5 mph 26.5 mph 0.00 in Snow Light Snow
4:23 PM 30.9 °F 21.7 °F 27.0 °F 85% 29.65 in 0.8 mi NNW 11.5 mph 23.0 mph 0.00 in Snow Light Snow
4:41 PM 30.0 °F 18.7 °F 25.0 °F 82% 29.66 in 1.2 mi NNW 16.1 mph 34.5 mph 0.00 in Snow Light Snow
4:46 PM 30.0 °F 17.5 °F 24.1 °F 79% 29.67 in 2.0 mi NNW 19.6 mph 29.9 mph 0.00 in Snow Light Snow
4:54 PM 30.0 °F 19.1 °F 24.1 °F 79% 29.73 in 3.0 mi NNW 15.0 mph 29.9 mph 0.00 in Snow Light Snow
5:04 PM 30.0 °F 20.5 °F 25.0 °F 82% 29.69 in 2.5 mi NNW 11.5 mph 26.5 mph 0.00 in Snow Light Snow
5:12 PM 28.9 °F 15.4 °F 25.0 °F 85% 29.69 in 1.8 mi NW 21.9 mph 33.4 mph 0.00 in Snow Light Snow
5:31 PM 27.0 °F 13.9 °F 23.0 °F 85% 29.71 in 0.8 mi NNW 18.4 mph 34.5 mph 0.00 in Snow Light Snow
5:51 PM 26.6 °F 13.1 °F 23.0 °F 86% 29.73 in 1.0 mi NNW 19.6 mph 35.7 mph 0.00 in Snow Light Snow
5:54 PM 27.0 °F 13.2 °F 23.0 °F 85% 29.79 in 1.0 mi NNW 20.7 mph 35.7 mph 0.00 in Snow Light Snow
6:13 PM 27.0 °F 13.9 °F 23.0 °F 85% 29.75 in 2.0 mi NW 18.4 mph 25.3 mph 0.00 in Snow Light Snow
6:25 PM 28.0 °F 18.1 °F 24.1 °F 85% 29.76 in 3.0 mi NNW 11.5 mph 23.0 mph 0.00 in Snow Light Snow
6:54 PM 28.9 °F 18.2 °F 23.0 °F 78% 29.84 in 10.0 mi NNW 13.8 mph 21.9 mph 0.00 in   Overcast
7:09 PM 28.9 °F 17.7 °F 23.0 °F 78% 29.79 in 10.0 mi NNW 15.0 mph 23.0 mph N/A   Overcast
7:54 PM 30.0 °F 20.5 °F 24.1 °F 79% 29.87 in 10.0 mi NW 11.5 mph 19.6 mph N/A   Overcast
8:54 PM 30.0 °F 20.0 °F 24.1 °F 79% 29.90 in 10.0 mi NNW 12.7 mph 20.7 mph N/A   Overcast
9:54 PM 30.0 °F 22.4 °F 24.1 °F 79% 29.93 in 10.0 mi NW 8.1 mph - N/A   Mostly Cloudy
10:54 PM 28.9 °F 19.2 °F 24.1 °F 82% 29.96 in 10.0 mi NW 11.5 mph - N/A   Mostly Cloudy
11:20 PM 28.9 °F 20.4 °F 24.1 °F 82% 29.92 in 10.0 mi NW 9.2 mph - N/A   Scattered Clouds
11:54 PM 28.0 °F 20.8 °F 23.0 °F 81% 29.99 in 10.0 mi NW 6.9 mph - N/A   Clear